Location: Heidgraben
(53.7081°N, 9.6576°E)
Time: 00:15:16
(UTC+00:00)

Cosmos 2333 Rocket - Pass Details

Date: 24 October 2020
Orbit: 841 x 861 km, 70.8° (Epoch: 28 November)

Event Time Altitude Azimuth Distance (km) Brightness Sun altitude
Exits shadow 01:32:52 17° 0° (N) 2,044 4.5 -39.0°
Drops below altitude 10° 01:35:03 10° 21° (NNE) 2,488 5.2 -38.8°
Sets 01:38:15 0° 39° (NE) 3,421 6.3 -38.4°
